Doha, Qatar

11:08 PM +03 on April 23, 2018 (GMT +0300)
Doha International

Weather History for OTBD - October, 2014

Change the Weather History Date:

Friday, October 31, 2014

  Actual Average Record
Temperature  
Mean Temperature 84 °F -  
Max Temperature 91 °F 85 °F 101 °F (2015)
Min Temperature 78 °F 67 °F 73 °F (1996)
Cooling Degree Days 20    
Growing Degree Days 34 (Base 50)    
Moisture  
Dew Point 72 °F    
Average Humidity 65    
Maximum Humidity 84    
Minimum Humidity 42    
Precipitation  
Precipitation 0.00 in 0.00 in - ()
Sea Level Pressure  
Sea Level Pressure 29.86 in    
Wind  
Wind Speed 5 mph ()    
Max Wind Speed 15 mph    
Max Gust Speed -    
Visibility 7.6 miles    
Events      
Averages and records for this station are not official NWS values.
T = Trace of Precipitation, MM = Missing Value Source: Averaged Metar Reports

Daily Weather History Graph

Daily Weather History Graph

Search for Another Location

Airport or City:

Astronomy

Oct. 31, 2014 Rise Set
Actual Time 5:40 AM +03 4:53 PM +03
Civil Twilight 5:17 AM +03 5:17 PM +03
Nautical Twilight 4:49 AM +03 5:44 PM +03
Astronomical Twilight 4:23 AM +03 6:11 PM +03
Moon 12:10 PM +03 (10/31) 11:49 PM +03 (10/31)
Length of Visible Light 12h 00m
Length of Day
11h 13m
First Quarter, 53% of the Moon is Illuminated
Oct 31
First Quarter
Nov 7
Full
Nov 14
Last Quarter
Nov 22
New
Nov 29
First Quarter

Hourly Weather History & Observations

Time (+03) Temp. Heat Index Dew Point Humidity Pressure Visibility Wind Dir Wind Speed Gust Speed Precip Events Conditions
12:00 AM 82 °F - 76 °F 76% 29.88 in 7 mi North 3.5 mph - -  
12:00 AM 82.4 °F 89.5 °F 75.2 °F 79% 29.86 in - North 3.5 mph - N/A   Clear
12:30 AM 82.4 °F 89.5 °F 75.2 °F 79% 29.86 in - North 3.5 mph - N/A   Clear
1:00 AM 82.4 °F 89.5 °F 75.2 °F 79% 29.86 in - Variable 2.3 mph - N/A   Clear
2:00 AM 80.6 °F 86.2 °F 75.2 °F 84% 29.86 in - North 3.5 mph - N/A   Clear
2:30 AM 80.6 °F 84.6 °F 71.6 °F 74% 29.86 in - NE 3.5 mph - N/A   Clear
3:00 AM 80 °F - 73 °F 73% 29.86 in 6 mi Calm Calm - -  
3:00 AM 80.6 °F 85.4 °F 73.4 °F 79% 29.86 in - Calm Calm - N/A   Clear
3:30 AM 78.8 °F - 73.4 °F 83% 29.86 in - Calm Calm - N/A   Clear
4:00 AM 80.6 °F 85.4 °F 73.4 °F 79% 29.86 in - Calm Calm - N/A   Clear
4:30 AM 80.6 °F 85.4 °F 73.4 °F 79% 29.86 in - Variable 2.3 mph - N/A   Clear
5:00 AM 78.8 °F - 71.6 °F 78% 29.86 in - Variable 2.3 mph - N/A   Clear
5:30 AM 78.8 °F - 71.6 °F 78% 29.86 in - Variable 2.3 mph - N/A   Clear
6:00 AM 80 °F - 72 °F 70% 29.89 in 7 mi ESE 3.5 mph - -  
6:00 AM 80.6 °F 84.6 °F 71.6 °F 74% 29.89 in - ESE 3.5 mph - N/A   Clear
6:30 AM 82.4 °F 87.2 °F 71.6 °F 70% 29.89 in - ESE 3.5 mph - N/A   Clear
7:00 AM 84.2 °F 90.9 °F 73.4 °F 70% 29.89 in - ESE 5.8 mph - N/A   Clear
8:00 AM 87.8 °F 93.8 °F 71.6 °F 58% 29.89 in - ESE 10.4 mph - N/A   Clear
8:30 AM 87.8 °F 93.8 °F 71.6 °F 58% 29.92 in - ESE 10.4 mph - N/A   Clear
9:00 AM 89 °F - 71 °F 46% 29.92 in 9 mi SE 11.5 mph - -  
9:00 AM 87.8 °F 93.8 °F 71.6 °F 58% 29.92 in - ESE 10.4 mph - N/A   Clear
10:00 AM 91.4 °F 98.4 °F 71.6 °F 52% 29.89 in - ESE 12.7 mph - N/A   Clear
11:00 AM 91.4 °F 98.4 °F 71.6 °F 52% 29.89 in - ESE 15.0 mph - N/A   Clear
12:00 PM 91 °F - 71 °F 42% 29.87 in 7 mi East 15.0 mph - -  
12:00 PM 91.4 °F 98.4 °F 71.6 °F 52% 29.86 in - East 15.0 mph - N/A   Clear
1:00 PM 91.4 °F 95.4 °F 68.0 °F 46% 29.83 in - East 13.8 mph - N/A   Clear
2:00 PM 89.6 °F 94.7 °F 69.8 °F 52% 29.83 in - ESE 12.7 mph - N/A   Clear
2:30 PM 89.6 °F 94.7 °F 69.8 °F 52% 29.83 in - ESE 11.5 mph - N/A   Clear
3:00 PM 90 °F - 70 °F 43% 29.84 in 10 mi ESE 11.5 mph - -  
3:00 PM 89.6 °F 94.7 °F 69.8 °F 52% 29.83 in - ESE 11.5 mph - N/A   Clear
3:30 PM 89.6 °F 96.2 °F 71.6 °F 55% 29.83 in - East 10.4 mph - N/A   Clear
4:00 PM 87.8 °F 93.8 °F 71.6 °F 58% 29.83 in - East 9.2 mph - N/A   Clear
4:30 PM 87.8 °F 95.6 °F 73.4 °F 62% 29.83 in - East 8.1 mph - N/A   Clear
5:00 PM 86.0 °F 93.4 °F 73.4 °F 66% 29.83 in - East 8.1 mph - N/A   Clear
5:30 PM 86.0 °F 91.8 °F 71.6 °F 62% 29.83 in - East 6.9 mph - N/A   Clear
6:00 PM 85 °F - 72 °F 58% 29.86 in 7 mi East 6.9 mph - -  
6:00 PM 84.2 °F 89.6 °F 71.6 °F 66% 29.86 in - East 6.9 mph - N/A   Clear
6:30 PM 84.2 °F 89.6 °F 71.6 °F 66% 29.86 in - ENE 5.8 mph - N/A   Clear
7:00 PM 84.2 °F 89.6 °F 71.6 °F 66% 29.86 in - ENE 6.9 mph - N/A   Clear
7:30 PM 84.2 °F 89.6 °F 71.6 °F 66% 29.86 in - ENE 5.8 mph - N/A   Clear
8:00 PM 84.2 °F 88.4 °F 69.8 °F 62% 29.89 in - ENE 5.8 mph - N/A   Clear
9:00 PM 84.2 °F 88.4 °F 69.8 °F 62% 29.89 in - East 5.8 mph - N/A   Clear
10:00 PM 84.2 °F 87.3 °F 68.0 °F 58% 29.86 in - East 5.8 mph - N/A   Clear
11:00 PM 82.4 °F 86.3 °F 69.8 °F 66% 29.86 in - East 4.6 mph - N/A   Clear